GFSGL_925_spd_099.txt.gz
Wind_Speed
25 22 22 19 18 16 15 12 11 13 14 17 20 25 28 33 35 35 28 32 35 36 36 37 35 35 28 25 18 13 14 11 7 5 13 13 22 23 19 19 18 21 25
18 24 19 17 13 11 8 7 9 11 13 13 15 18 21 24 32 32 32 32 34 31 33 33 32 35 31 23 19 15 11 11 10 9 12 14 15 16 15 17 18 21 27
14 17 18 17 14 13 13 8 10 12 13 11 15 15 17 22 31 31 35 32 34 31 31 34 34 34 32 22 19 16 17 11 12 14 19 19 19 17 18 21 22 26 26
10 14 15 14 13 13 11 10 13 14 13 14 13 12 12 12 24 27 30 34 29 34 33 33 35 33 26 21 20 25 23 24 26 22 21 20 20 21 21 21 22 21 21
6 10 13 14 13 13 12 12 14 15 14 15 14 12 11 12 15 24 28 33 33 31 30 26 24 21 20 23 23 26 27 26 24 22 16 15 18 16 16 17 18 14 11
25 9 6 10 13 11 13 12 15 14 14 15 15 14 14 12 13 15 14 18 23 20 20 21 22 21 22 17 26 26 27 27 26 21 17 16 18 12 12 13 10 7 4
30 26 13 15 14 15 17 17 16 15 14 15 15 15 12 10 16 18 18 17 17 18 20 25 23 22 21 22 23 23 20 24 25 21 16 11 9 9 8 7 8 7 3
30 29 25 16 16 15 19 19 19 19 20 20 17 14 11 5 7 16 21 18 20 16 15 16 20 19 20 20 20 18 13 8 7 10 12 9 8 9 10 8 7 5 5
32 29 28 24 21 21 22 21 18 20 22 22 19 17 17 15 11 17 23 22 21 18 12 10 11 11 10 14 19 22 22 22 19 17 16 12 8 6 5 6 7 9 4
27 31 30 29 25 30 28 27 24 26 27 26 27 25 22 19 13 14 22 27 28 26 22 21 14 15 15 16 21 24 27 23 21 20 19 17 15 14 11 10 9 10 7
29 27 36 34 26 27 32 32 32 31 31 30 32 33 33 28 21 18 20 24 28 29 28 28 25 19 20 20 21 24 28 24 23 22 21 21 20 20 21 19 16 12 12
34 34 37 35 29 27 32 32 31 28 28 26 26 30 34 34 31 28 28 30 29 32 28 31 33 36 35 34 33 30 29 26 23 23 23 21 20 17 18 18 19 18 18
33 33 36 37 32 33 30 27 31 28 26 26 24 24 23 29 34 32 33 34 37 37 33 31 32 33 34 30 28 24 25 27 28 25 22 19 16 12 15 14 11 11 13
29 31 30 32 32 36 33 33 28 23 22 25 21 21 25 25 26 22 21 30 29 34 31 30 30 30 31 29 27 25 24 23 24 23 21 19 15 14 15 12 12 11 9
26 22 27 27 29 30 34 32 29 31 28 23 20 22 21 20 24 24 21 24 25 26 25 28 25 23 27 26 26 24 21 20 22 21 19 16 17 16 14 9 12 13 15
22 22 23 19 24 23 23 28 31 30 30 28 25 27 26 23 20 23 22 20 19 21 24 24 23 22 21 20 21 22 20 19 17 18 19 19 17 17 15 13 11 13 13
22 21 21 21 19 14 15 16 17 25 29 29 27 26 24 19 20 22 22 22 18 22 22 20 20 20 19 18 19 19 20 19 15 16 17 19 17 15 17 17 15 14 13
21 22 22 20 20 18 18 18 17 16 16 21 23 22 23 22 21 17 16 20 23 22 20 19 19 19 18 17 17 17 17 17 16 15 15 16 18 16 16 15 13 14 14
21 20 19 19 19 17 17 18 18 17 18 20 20 19 16 18 20 21 20 24 20 19 19 21 20 18 17 17 16 16 14 17 16 15 14 13 15 13 14 15 13 13 14
18 17 17 19 18 18 17 17 19 19 19 21 22 17 15 17 21 21 21 22 22 19 17 18 18 18 17 15 13 11 12 11 12 12 12 12 13 12 13 14 15 14 13
17 17 18 17 18 18 18 17 15 18 19 18 20 18 16 18 18 18 17 18 18 19 16 14 13 12 13 13 11 10 11 10 9 8 9 11 13 12 10 10 12 12 12
18 16 15 17 16 15 15 16 15 14 13 14 13 14 13 16 16 16 15 13 12 12 13 11 11 10 10 9 8 7 7 8 8 8 5 6 9 8 7 7 10 11 11
16 16 15 16 15 13 14 13 14 13 12 11 10 10 10 10 10 10 10 10 9 9 7 7 7 7 6 5 6 6 6 6 6 6 2 3 5 7 8 8 10 10 11
13 15 14 13 12 12 12 11 11 11 12 12 11 10 8 8 7 8 8 7 6 7 6 6 7 7 5 3 4 5 7 7 7 6 2 1 2 5 6 7 7 8 8
11 12 13 13 12 12 13 11 10 9 9 9 8 7 6 5 4 6 7 8 5 5 4 4 8 10 6 1 3 6 8 11 8 3 2 2 2 5 4 6 7 8 6
10 10 10 10 9 9 9 8 8 7 7 7 5 5 5 4 5 4 3 4 6 2 2 5 5 6 6 5 4 8 12 13 9 6 3 3 3 3 6 6 4 7 8

GFSGL_925_spd_102.txt.gz
Wind_Speed
9 20 23 25 24 23 23 20 20 19 18 20 22 24 27 29 33 33 33 36 39 35 37 36 38 35 32 31 30 34 29 26 8 9 25 27 23 29 33 32 29 27 25
18 13 23 26 25 22 20 17 14 13 13 15 17 20 22 25 28 32 31 30 34 35 33 37 37 34 34 27 31 24 21 31 19 10 15 21 20 23 27 26 25 27 22
22 8 19 20 22 17 16 10 5 6 10 13 14 13 16 19 23 29 34 31 29 31 33 36 36 37 35 28 23 27 27 18 26 18 10 13 9 12 20 24 19 18 16
25 1 14 14 15 15 10 9 5 10 11 10 10 11 13 11 16 24 29 31 32 30 33 37 37 39 35 31 29 26 23 20 15 15 15 16 16 15 21 20 19 19 18
26 22 16 8 11 13 12 10 10 11 10 8 10 9 6 7 10 12 27 23 28 29 30 31 34 35 38 35 29 26 20 20 18 17 11 9 9 17 20 20 18 17 11
28 28 23 17 5 8 8 8 8 9 8 8 8 9 6 3 1 5 10 21 28 29 27 28 26 28 27 26 22 20 20 25 21 14 11 17 22 20 22 19 16 10 5
30 31 30 24 15 9 13 16 13 11 10 8 6 4 2 4 7 5 6 6 9 17 21 22 22 22 20 19 19 19 22 23 25 27 21 23 18 20 18 17 15 11 6
28 33 33 28 22 16 12 18 18 16 15 13 11 9 8 7 4 10 11 8 9 9 11 13 16 16 17 19 20 17 13 14 18 22 22 19 16 17 16 14 14 12 10
31 30 33 31 27 24 22 19 23 24 22 20 18 15 14 13 6 7 13 10 11 9 6 7 11 14 17 21 23 22 20 18 14 14 14 12 10 9 10 12 13 16 4
31 29 28 33 32 27 23 22 23 28 29 26 27 24 22 19 13 11 15 18 20 19 17 14 10 11 13 17 22 27 26 22 22 22 21 19 16 16 12 8 9 12 9
32 34 35 31 32 28 27 27 27 23 30 32 31 30 31 26 21 18 18 22 25 26 26 25 19 15 16 17 20 21 26 24 23 23 23 22 21 20 19 16 12 6 10
33 35 35 36 34 30 29 30 30 24 25 27 27 27 30 32 32 30 29 29 30 34 28 29 32 32 30 28 28 28 26 25 24 25 25 22 20 20 21 20 20 21 19
33 34 32 35 34 35 32 31 31 27 23 21 23 23 22 26 32 34 34 36 35 36 32 30 32 33 33 31 27 25 24 25 24 25 23 24 21 16 15 16 18 19 19
28 29 30 30 32 34 34 31 30 30 23 21 20 19 23 21 23 24 27 29 32 31 29 30 32 32 31 30 27 25 25 24 25 25 22 19 18 18 17 15 16 15 18
24 20 24 26 27 27 33 31 29 33 29 24 22 23 22 23 23 21 22 21 24 26 27 26 27 27 28 26 25 24 22 21 23 20 20 18 17 17 16 15 16 16 18
21 20 20 17 20 22 22 24 30 29 30 30 27 26 28 24 21 21 19 19 18 19 27 23 21 20 21 21 21 20 20 19 18 17 17 17 16 16 15 14 12 14 16
22 20 20 19 19 17 16 16 16 23 27 28 26 26 22 20 20 18 17 18 17 18 24 21 20 19 19 18 19 18 19 17 15 17 16 15 14 14 13 14 12 12 13
20 20 20 18 18 18 18 18 18 19 17 21 22 23 22 20 18 16 14 16 22 23 22 19 19 17 16 15 15 15 15 15 15 15 16 15 15 14 14 13 12 12 9
19 18 17 17 17 18 18 17 16 19 19 17 17 18 16 17 19 19 17 22 19 18 18 19 18 17 16 16 16 15 15 15 15 15 15 15 13 13 13 12 11 11 10
17 17 16 16 15 15 17 19 17 18 19 18 18 17 14 15 21 21 19 19 18 17 16 16 15 15 14 13 13 11 12 12 12 13 13 12 11 11 12 11 11 12 11
14 13 14 15 15 14 11 14 15 15 17 17 16 14 13 16 17 17 17 17 15 15 14 13 12 11 11 10 10 9 10 10 9 9 9 9 8 10 10 9 10 10 9
14 13 14 14 13 13 13 11 9 10 11 12 12 12 11 13 14 14 14 13 12 11 10 9 9 9 9 8 7 7 7 7 7 6 6 7 7 7 6 6 7 8 9
11 12 13 12 11 11 12 11 11 10 9 9 9 9 10 11 11 11 9 8 8 8 7 6 5 6 6 6 6 6 5 5 6 5 2 3 4 5 6 7 7 8 8
11 11 12 12 11 10 9 9 9 9 9 7 6 5 5 6 7 8 8 6 5 6 6 7 7 6 4 3 4 6 7 8 6 3 1 1 2 4 3 4 5 5 5
10 10 9 9 9 8 7 8 8 7 6 5 5 5 4 4 5 5 7 6 5 3 4 6 6 7 5 3 4 7 9 9 7 3 1 2 1 1 2 4 5 4 3
7 7 7 7 6 8 5 5 5 4 4 3 3 4 3 1 1 3 2 2 4 2 2 2 3 5 6 6 5 8 11 10 8 6 4 3 4 2 1 1 1 3 3

GFSGL_925_spd_105.txt.gz
Wind_Speed
19 2 18 24 22 22 22 24 25 26 25 23 24 22 22 25 27 30 30 30 32 33 31 33 35 32 33 33 35 33 27 26 7 10 26 29 25 36 39 35 32 31 31
27 15 9 17 20 21 22 22 20 19 18 17 17 16 18 22 24 29 30 33 35 35 35 35 38 38 35 35 32 33 33 31 19 7 15 24 25 29 35 35 31 27 28
31 26 4 14 19 21 21 20 17 14 12 11 13 16 17 18 20 26 28 28 35 35 31 33 37 36 35 35 33 31 31 28 28 18 12 20 18 20 21 20 18 18 18
30 27 21 8 15 18 17 17 13 9 10 10 10 10 9 11 14 19 23 29 31 34 34 38 39 39 38 36 34 31 30 28 26 23 20 19 18 12 16 18 9 10 15
29 28 26 21 5 9 10 11 9 7 5 6 6 6 6 8 10 15 18 22 28 24 26 29 32 32 38 42 39 33 33 28 24 21 15 11 13 14 15 14 17 19 16
28 26 28 26 20 16 8 6 7 10 9 8 7 7 5 4 7 8 8 11 16 26 24 27 30 35 41 44 42 40 36 30 23 17 16 13 20 22 22 23 23 13 5
26 34 31 33 30 26 16 10 8 7 9 8 6 2 0 5 8 10 5 5 3 1 5 22 25 23 35 33 35 33 31 31 28 28 19 20 22 29 27 25 24 17 11
32 32 34 31 33 32 30 27 19 11 12 10 8 7 6 8 7 5 4 2 8 10 9 8 22 25 28 30 28 26 14 13 17 22 25 25 25 22 22 27 28 19 13
32 33 32 30 30 32 32 31 29 24 21 17 15 13 12 14 13 6 3 9 11 12 11 8 7 9 13 15 16 16 14 11 7 12 17 17 16 18 18 20 22 23 5
31 31 34 33 30 29 29 32 29 28 27 21 27 25 23 20 17 9 8 13 18 20 18 15 12 8 7 11 15 21 22 17 19 20 21 20 15 13 11 10 14 15 12
30 33 36 35 35 32 30 32 28 33 28 25 26 31 33 29 27 19 16 18 21 25 27 27 25 15 10 12 16 19 24 22 22 23 25 23 22 21 20 15 12 10 13
33 34 36 35 34 36 36 34 33 33 26 26 23 26 30 33 32 30 28 26 26 30 28 29 31 33 34 31 29 30 27 25 25 26 26 24 28 29 28 26 24 22 21
33 34 33 34 34 35 35 32 30 30 26 26 22 25 26 28 26 31 32 28 32 33 29 28 30 34 33 32 28 27 26 26 27 29 25 24 24 23 25 27 27 26 26
27 29 30 30 31 32 33 33 32 30 24 24 22 24 25 29 28 27 27 26 29 31 29 32 34 33 33 32 29 29 28 27 28 26 25 23 20 17 19 19 21 20 23
23 24 24 24 28 27 31 32 29 33 31 23 23 24 22 24 25 23 23 20 23 24 25 26 30 29 28 28 29 28 26 26 25 22 21 21 20 20 18 14 13 14 17
22 22 23 22 23 23 22 22 25 30 29 29 27 25 26 24 20 19 18 17 18 19 27 24 23 24 23 23 23 24 24 22 20 19 19 19 18 17 16 16 15 16 17
25 22 22 23 22 21 20 19 18 18 20 26 26 27 24 21 20 19 19 20 21 23 26 22 20 20 20 20 20 21 21 19 17 19 18 17 16 15 14 14 13 14 13
21 19 20 21 21 19 18 18 19 20 19 22 21 22 23 22 22 19 13 15 24 24 23 21 19 18 18 18 18 18 18 17 17 17 17 15 15 14 14 13 12 13 11
20 18 17 17 19 19 18 18 18 19 20 20 22 21 19 17 18 19 18 23 21 21 19 19 18 18 18 18 17 17 17 17 16 16 15 14 13 13 14 12 12 11 10
15 15 14 14 14 16 16 17 17 18 19 20 21 20 18 17 22 22 21 20 19 18 18 18 16 15 14 14 13 13 13 13 14 14 13 12 12 12 12 11 11 10 10
13 11 12 12 11 10 11 13 13 14 15 16 16 16 15 18 18 18 18 17 16 15 14 14 13 12 12 11 12 12 12 11 11 11 10 10 9 10 10 9 9 8 7
11 10 10 11 10 9 8 7 9 10 11 12 12 13 14 15 15 14 14 13 12 12 12 11 11 11 10 10 10 9 10 10 9 8 7 7 7 7 6 7 7 6 6
10 10 9 9 7 7 7 6 5 6 7 7 8 9 10 11 12 12 10 10 10 9 9 9 8 7 7 7 8 8 8 7 6 6 3 3 4 6 6 6 6 5 6
10 9 9 9 8 7 6 5 5 4 3 4 5 5 5 7 8 10 10 9 8 7 7 9 9 7 5 6 8 9 10 9 6 4 1 1 3 5 4 4 4 3 3
9 9 9 9 8 7 5 4 4 4 4 3 2 2 1 2 3 5 6 6 6 5 4 6 8 8 7 6 8 9 10 8 6 4 2 2 2 1 1 1 2 2 2
8 8 8 8 8 10 8 4 4 4 4 4 3 3 3 5 3 4 5 4 4 5 4 4 3 4 5 5 5 7 7 8 8 5 3 2 3 2 1 0 2 3 2

GFSGL_925_spd_108.txt.gz
Wind_Speed
27 14 9 20 24 25 26 28 26 24 24 20 23 27 24 22 22 24 26 26 28 30 31 31 32 30 29 32 32 30 28 23 12 12 27 34 30 42 39 37 34 32 32
27 23 4 14 18 21 23 23 22 22 17 17 21 19 19 18 18 19 22 26 29 28 30 31 32 30 32 36 35 34 33 34 20 7 23 25 29 31 33 37 36 34 31
28 25 25 18 10 16 18 17 17 15 15 15 14 15 14 14 15 16 18 21 22 26 30 35 32 33 31 29 34 35 34 33 31 17 13 21 22 24 29 27 28 25 26
30 27 29 27 16 10 13 16 16 15 13 12 11 10 10 10 11 13 16 19 22 25 29 31 33 35 37 39 36 35 35 33 31 27 20 18 20 20 24 24 21 24 23
30 35 32 31 25 22 17 14 10 8 8 7 7 7 7 8 9 11 11 11 16 24 30 33 35 38 38 41 38 36 37 35 30 28 20 17 16 18 24 22 18 27 19
32 31 30 34 30 28 22 22 17 16 14 10 9 8 5 5 7 8 7 8 11 14 19 24 29 37 39 49 47 43 41 37 32 30 25 22 24 25 27 29 24 16 6
30 33 34 38 32 30 30 28 26 22 17 17 14 10 8 9 11 7 6 6 6 8 12 13 13 19 25 31 38 38 38 41 41 36 31 30 24 29 33 30 27 20 11
33 34 35 35 28 32 34 35 33 30 29 26 24 22 17 19 15 9 3 0 4 7 10 10 6 6 12 27 29 27 22 25 29 30 29 28 28 32 31 31 30 23 15
32 32 30 27 34 30 29 30 33 33 34 34 34 31 29 32 24 12 5 6 9 13 14 14 11 6 4 15 25 27 24 22 15 18 22 20 23 24 25 28 25 24 5
33 30 30 31 30 32 32 29 29 29 32 36 35 34 34 36 36 22 13 13 17 17 19 19 20 12 5 7 16 23 27 21 20 19 17 14 11 12 17 21 26 22 13
30 33 36 36 34 32 33 33 33 31 31 30 36 33 34 37 37 36 26 22 21 22 26 27 27 17 16 14 14 18 25 25 27 28 28 26 24 21 19 14 12 14 15
34 36 36 34 34 34 31 31 31 29 31 29 28 30 33 35 34 34 33 31 27 27 24 25 27 29 28 27 29 29 29 27 28 31 33 28 31 28 31 30 29 26 24
32 33 33 35 35 33 33 31 29 29 26 24 25 26 26 30 33 31 30 30 29 31 27 26 25 27 30 32 28 27 27 27 27 28 26 27 26 27 31 32 33 32 32
27 26 29 29 31 32 32 31 33 29 26 26 25 24 23 27 31 30 27 25 25 27 28 30 32 33 34 34 33 33 32 30 29 26 25 26 25 27 26 27 29 29 31
25 27 28 29 29 27 28 31 30 34 32 27 25 26 24 26 27 24 24 23 20 21 23 26 31 30 30 31 32 31 29 29 29 26 24 23 23 23 21 18 20 23 21
24 25 28 27 26 26 24 23 23 25 28 29 29 27 25 22 21 23 21 19 18 21 26 23 24 23 22 22 24 26 26 25 24 23 22 21 20 19 20 20 20 21 19
26 24 25 27 26 26 26 26 24 22 22 26 26 26 25 23 22 19 18 21 21 23 26 22 21 20 20 22 22 22 21 20 20 21 20 19 18 17 17 15 15 17 17
22 22 24 25 25 25 24 24 24 24 22 27 25 23 22 22 22 21 15 15 25 25 23 20 19 20 20 19 18 18 18 18 19 19 18 16 16 16 15 14 14 14 13
22 21 20 20 21 21 22 23 23 24 24 25 26 25 21 18 20 21 21 24 21 21 19 20 19 18 17 17 17 18 17 17 17 17 16 15 14 15 16 15 15 14 12
19 19 18 18 17 18 19 20 20 21 22 23 24 23 22 21 24 23 22 21 20 18 17 16 15 15 15 14 13 13 14 15 15 16 16 15 14 14 15 14 13 12 11
18 17 16 16 16 15 14 15 15 16 17 18 18 18 19 20 19 18 18 18 17 15 14 13 13 13 13 13 13 12 13 13 13 13 13 12 11 14 13 13 13 13 11
17 17 16 15 14 14 13 12 12 13 13 13 13 13 15 17 17 15 15 14 13 13 12 11 11 12 12 12 11 10 11 10 10 10 10 10 10 10 10 11 11 11 10
16 15 15 14 14 12 12 11 9 9 10 10 10 10 11 12 12 13 12 11 11 11 12 10 8 8 9 9 9 9 8 8 8 7 6 7 8 9 8 9 9 9 9
15 15 14 13 13 12 11 10 10 9 8 9 9 7 7 8 8 9 9 9 9 8 9 10 10 9 8 9 10 10 10 9 6 6 5 6 6 7 6 6 6 6 6
13 13 14 13 12 14 14 12 10 10 10 9 8 7 7 7 7 7 8 8 7 6 6 7 8 7 6 7 9 10 10 9 7 5 5 5 4 3 3 3 4 4 4
12 12 13 13 13 14 14 12 10 10 11 10 9 8 9 8 8 8 7 6 4 6 5 5 4 4 4 4 6 7 7 9 9 5 3 2 1 1 2 3 4 4 4

GFSGL_925_spd_114.txt.gz
Wind_Speed
26 23 18 13 17 22 24 23 24 23 24 25 29 29 31 32 33 32 29 29 29 24 25 26 27 24 24 25 26 26 24 23 14 22 20 24 28 30 34 38 42 38 34
25 20 20 19 11 14 17 21 20 20 20 22 23 28 28 28 27 29 28 25 24 22 24 25 25 22 22 25 24 25 26 26 23 19 22 24 30 33 36 39 41 40 33
27 26 28 31 29 26 9 12 15 17 17 18 20 18 16 15 18 20 20 21 20 21 18 17 19 19 22 24 26 27 26 26 29 27 24 26 28 27 32 34 35 35 32
34 35 34 35 31 29 28 24 22 22 21 22 22 21 20 17 16 14 13 12 11 11 11 11 15 17 20 23 24 26 29 30 29 28 25 19 23 26 31 29 26 29 29
32 38 35 33 35 34 35 31 30 32 30 28 28 25 20 17 11 7 8 6 4 4 7 8 9 12 20 25 27 25 25 27 31 29 23 22 20 18 29 27 26 25 22
39 38 38 35 39 38 41 34 36 35 34 32 30 26 23 20 13 7 6 8 4 1 4 7 9 13 14 22 25 31 34 34 28 25 26 23 27 28 28 28 27 16 5
38 38 36 38 40 35 39 41 41 35 35 37 36 34 33 26 18 13 10 11 8 8 9 12 11 11 15 18 19 22 21 24 32 34 28 32 31 34 33 32 29 31 25
36 38 39 40 40 39 43 38 40 30 37 34 35 33 36 34 25 19 18 16 15 15 15 18 15 14 14 16 13 12 10 12 17 23 32 24 30 37 42 43 40 30 19
38 38 37 38 37 37 41 36 36 34 39 40 41 38 37 36 31 24 20 20 19 20 19 23 20 17 17 11 7 6 7 9 10 4 5 14 24 30 36 29 23 28 5
33 33 35 36 34 36 33 28 31 34 34 31 38 35 34 35 37 32 27 24 23 18 19 22 27 24 22 13 11 8 12 15 11 11 11 8 5 4 15 24 33 30 12
28 31 32 33 33 33 31 32 29 30 33 30 29 32 33 38 36 34 32 29 21 19 21 22 24 24 23 20 17 18 13 9 13 17 18 20 23 21 22 17 10 16 14
27 29 31 32 33 32 31 30 31 29 28 26 25 25 28 29 30 28 29 26 23 23 21 21 21 19 24 23 22 18 17 17 20 25 25 25 25 28 28 27 24 22 17
25 27 27 28 31 30 32 31 31 29 27 27 26 25 25 29 30 26 24 23 22 19 18 21 24 24 23 28 27 23 21 24 25 26 22 22 22 22 27 32 32 32 30
24 23 23 25 24 27 26 27 29 29 26 26 24 25 23 26 30 31 26 22 19 16 16 18 20 21 24 26 29 29 25 24 24 23 21 21 23 26 30 27 25 25 32
22 23 23 22 22 20 22 26 24 28 26 25 24 21 24 23 24 23 23 20 17 16 14 16 19 20 19 20 21 20 19 19 19 18 19 19 20 23 25 24 26 26 26
20 20 21 20 20 20 19 16 20 22 24 25 23 24 18 21 21 19 20 23 19 17 16 18 18 18 18 18 17 16 17 17 16 14 15 15 15 15 17 19 21 22 20
21 19 19 19 19 19 19 18 17 16 17 22 24 24 23 22 24 22 17 15 22 16 16 16 15 15 14 14 15 14 14 14 13 13 13 13 12 13 14 15 15 15 16
16 17 17 17 18 18 17 17 16 17 18 19 19 22 23 21 23 24 21 14 17 18 17 15 15 14 14 13 13 12 12 12 13 12 12 11 11 11 11 12 12 12 13
17 16 14 14 15 15 15 16 16 17 17 17 19 20 22 20 19 20 20 18 16 16 15 14 14 13 13 12 11 11 11 11 11 10 10 11 10 9 10 10 11 10 10
13 16 14 15 15 15 15 15 15 15 14 15 15 19 21 18 19 19 18 16 15 14 14 13 12 12 12 12 11 10 9 9 9 9 9 8 8 8 8 8 8 8 8
12 12 13 12 12 13 12 12 13 13 14 15 15 15 19 16 16 16 15 15 14 13 12 11 11 11 11 11 11 10 9 8 8 8 7 7 7 6 6 7 7 7 7
11 11 11 11 11 12 12 12 12 12 12 12 12 11 12 12 12 12 12 12 12 11 11 10 9 9 10 10 10 9 8 8 8 8 7 6 5 5 6 6 6 6 6
10 11 11 11 11 11 12 12 11 12 12 12 12 12 12 11 11 11 11 11 10 10 10 9 8 8 8 9 9 8 7 7 7 6 6 5 5 5 5 5 5 5 6
9 10 11 11 11 11 12 12 12 10 11 12 12 12 12 11 11 10 10 10 9 8 8 8 8 7 7 8 8 8 7 6 5 6 6 4 4 5 4 5 5 5 5
10 11 12 12 12 12 13 13 13 12 12 12 12 12 12 12 12 10 9 9 9 8 8 7 6 6 6 7 7 8 10 9 7 6 5 4 4 4 4 3 3 3 3
12 13 13 14 14 14 15 15 14 14 13 13 12 12 12 12 12 11 10 9 8 8 8 8 7 6 6 5 5 6 7 9 10 8 6 4 3 3 3 3 3 2 3

GFSGL_925_spd_117.txt.gz
Wind_Speed
27 29 30 25 25 29 36 34 32 34 28 26 29 32 33 34 33 33 31 29 32 30 29 30 28 25 21 22 24 21 21 20 12 24 24 18 19 22 23 30 32 34 43
29 32 24 20 17 16 10 25 26 26 26 25 28 28 29 29 28 29 27 26 29 27 27 26 24 19 21 21 21 24 25 22 22 18 24 22 23 25 24 25 32 37 39
33 28 22 21 26 35 33 30 17 6 9 9 11 14 17 21 25 26 26 26 25 27 23 20 16 19 22 23 21 22 23 23 24 23 23 22 22 22 24 27 30 33 38
28 29 26 34 38 38 38 39 36 31 29 25 24 23 20 18 18 18 21 22 20 19 19 16 11 10 9 6 7 14 15 20 19 19 20 24 24 25 28 25 24 31 32
33 36 36 38 40 41 41 40 39 40 36 32 29 29 27 26 19 14 16 16 16 13 10 9 5 2 2 7 11 14 18 18 19 19 22 23 22 17 20 22 25 26 28
38 39 40 39 42 40 42 41 43 42 39 39 38 35 35 33 23 18 15 14 14 11 9 4 2 3 7 9 12 11 14 18 21 19 23 19 26 28 27 27 25 11 4
37 39 40 39 44 42 40 40 43 41 37 40 38 36 41 39 31 26 20 18 20 17 14 10 8 9 10 11 10 8 10 9 10 13 16 19 20 17 25 29 30 25 25
38 39 41 44 40 39 38 38 40 37 34 41 39 39 41 44 36 31 29 24 24 20 25 22 16 16 16 13 8 5 5 7 8 8 7 12 15 26 32 29 36 34 20
36 37 37 37 38 36 35 33 36 30 37 39 34 40 37 46 45 35 33 30 25 27 27 31 25 22 20 11 6 5 6 9 5 5 5 8 9 13 25 28 24 19 3
32 31 32 33 34 33 32 33 33 33 34 38 38 33 38 38 47 38 39 33 28 24 22 25 30 25 21 18 15 10 9 13 13 11 11 11 14 15 14 6 9 19 11
28 30 33 33 33 33 33 36 33 33 34 32 33 39 40 39 33 35 36 29 23 21 27 28 25 25 26 22 19 17 13 10 12 15 17 18 20 23 24 20 10 7 11
25 28 29 32 30 31 33 32 33 33 31 29 29 28 30 33 35 35 30 27 25 24 23 23 24 24 24 26 25 21 19 16 18 21 22 24 24 26 25 24 22 18 12
25 27 28 26 31 31 31 33 31 29 28 27 27 26 26 29 33 31 28 27 25 20 20 20 21 23 24 25 29 28 27 24 20 21 20 20 21 20 18 20 21 24 27
24 24 23 26 24 27 29 28 31 31 28 27 25 25 25 27 29 29 30 26 23 22 20 19 19 18 21 22 26 26 24 21 19 18 17 19 20 23 24 22 22 17 27
19 21 21 22 23 21 20 24 24 27 28 26 26 23 26 27 29 25 24 27 23 19 16 18 21 21 22 22 22 22 22 22 20 19 16 15 16 17 20 22 23 21 21
21 22 24 23 22 23 22 18 19 20 23 25 24 24 20 22 25 25 21 21 23 19 18 19 19 20 19 19 19 19 20 20 20 18 15 15 14 15 14 15 17 17 17
20 20 20 21 21 21 21 20 19 18 17 21 24 25 25 24 26 27 23 18 21 21 20 19 19 19 18 18 18 18 17 17 16 15 15 14 14 13 14 13 13 13 14
17 17 17 17 17 17 18 18 17 18 19 20 20 23 25 23 24 25 24 18 20 21 19 18 17 17 17 17 17 17 16 16 15 14 15 14 13 13 13 13 12 12 11
15 15 14 14 15 15 16 16 16 17 17 18 18 19 26 22 20 22 22 21 19 18 18 17 17 17 16 16 15 15 14 14 14 14 15 14 12 11 11 10 10 11 10
13 14 14 14 15 16 15 16 16 16 16 17 18 17 25 21 20 20 20 19 18 17 16 16 15 14 14 14 14 14 14 14 14 14 12 12 12 11 9 9 9 8 8
12 12 13 14 14 15 15 15 15 16 16 17 17 14 18 18 18 18 17 17 17 16 16 15 14 14 13 13 13 13 12 12 12 12 11 12 10 10 8 7 7 7 6
12 13 13 13 14 14 14 15 15 15 15 16 16 16 16 16 16 16 16 15 14 13 13 13 13 12 12 12 13 12 11 11 11 11 12 9 9 8 7 7 6 5 5
12 13 13 13 13 14 14 15 15 15 15 16 16 16 16 15 15 15 15 14 14 14 13 12 11 11 11 11 11 11 10 10 10 11 12 11 9 10 8 7 6 6 6
13 13 14 14 14 15 14 16 15 15 15 15 15 15 15 16 16 15 13 11 13 13 12 11 11 9 10 10 9 9 10 10 8 8 9 9 10 10 7 5 5 5 5
13 14 15 16 16 17 17 17 17 17 17 16 16 16 16 16 16 15 14 13 12 12 11 11 10 10 9 10 8 8 11 12 11 5 7 7 5 5 6 5 6 4 5
14 15 16 16 17 18 18 19 20 20 20 19 19 17 18 17 15 15 14 13 12 11 14 10 10 8 10 9 4 9 11 10 11 9 9 7 6 6 7 4 5 3 3

GFSGL_925_spd_120.txt.gz
Wind_Speed
30 26 26 22 21 21 24 31 40 39 39 39 32 22 19 31 38 40 31 33 32 32 31 31 33 31 26 26 25 24 25 24 10 16 20 18 21 28 28 26 27 28 32
29 26 25 25 23 23 21 21 8 35 37 35 31 33 31 44 39 36 33 32 32 29 31 30 30 29 29 27 25 22 24 27 20 14 16 19 20 21 24 29 29 31 31
32 29 30 26 27 28 26 28 33 33 32 24 5 3 10 15 27 31 33 33 32 30 27 30 26 26 25 24 20 20 18 18 18 16 18 17 22 25 26 26 30 32 31
35 34 35 34 31 28 29 38 36 39 44 36 31 28 26 16 8 11 31 29 26 25 26 19 17 18 15 16 14 7 2 2 4 8 12 16 18 19 21 21 21 30 31
36 39 37 32 31 30 40 41 42 47 52 36 37 38 37 36 27 21 27 28 28 28 26 21 20 18 13 8 7 11 8 11 11 8 11 13 14 16 17 22 24 25 29
35 34 35 35 37 37 47 46 49 49 41 38 46 46 43 41 38 29 31 31 29 26 25 22 14 13 10 11 7 3 3 6 7 5 8 10 16 18 19 22 25 23 5
36 38 38 39 39 44 43 44 45 40 41 47 46 44 44 45 40 39 41 40 35 35 30 27 23 20 17 10 8 6 7 6 5 3 5 4 11 9 20 26 19 19 20
34 36 38 37 39 40 41 40 49 37 42 42 44 43 47 50 43 37 46 44 33 42 37 36 31 30 24 15 8 7 8 8 8 6 4 6 9 13 15 20 26 27 29
34 34 35 36 37 39 38 39 43 34 41 43 40 51 38 50 47 51 47 36 27 41 31 37 38 33 30 20 14 12 10 14 9 5 5 6 7 8 12 13 8 10 7
32 34 32 34 37 36 36 36 32 31 32 38 36 42 39 42 43 46 34 39 36 35 37 37 40 33 27 27 27 20 18 17 14 10 8 8 10 11 12 12 12 8 5
28 28 37 35 33 33 30 32 31 32 33 31 33 36 38 38 39 38 37 31 27 29 28 31 36 31 34 33 28 23 19 16 17 15 16 15 16 17 18 18 16 12 9
25 29 27 34 33 33 36 34 33 31 30 33 32 31 34 37 38 39 34 30 31 26 26 29 27 25 26 30 32 29 27 27 26 21 20 20 21 21 17 17 16 15 11
25 26 29 26 32 30 34 34 33 32 32 30 30 29 30 33 33 32 31 30 31 28 26 25 24 24 24 28 28 27 26 24 20 17 18 20 22 20 18 17 16 16 19
25 25 25 27 23 29 26 31 31 31 29 29 27 27 26 30 34 33 32 35 30 27 23 24 23 23 24 25 25 28 27 26 23 19 18 19 21 24 25 24 22 15 21
20 24 22 22 24 19 23 23 24 27 28 27 26 25 28 29 32 29 27 30 28 22 21 23 25 24 23 24 24 23 24 24 23 23 22 20 21 21 21 22 22 20 18
20 20 24 22 22 22 21 18 20 19 22 24 25 26 23 25 27 27 24 23 25 23 23 23 22 23 23 23 22 21 23 24 23 22 22 22 18 19 18 20 20 20 17
20 21 20 22 22 22 21 20 18 19 19 19 23 27 24 23 26 28 25 21 23 24 23 22 22 22 22 21 22 21 20 21 22 21 21 21 20 19 18 17 17 16 16
20 20 19 19 20 19 19 19 19 20 20 21 20 27 28 24 24 25 26 23 25 25 24 21 21 22 22 22 21 21 20 21 21 19 20 21 19 16 15 15 16 15 13
16 21 19 18 19 20 19 19 20 20 19 20 20 23 32 24 22 23 23 25 23 22 23 22 21 20 21 22 23 22 22 22 22 21 21 19 21 16 14 15 12 12 12
15 17 17 17 17 18 19 19 19 18 19 19 20 20 27 24 23 24 22 24 22 20 21 22 22 20 20 21 22 22 20 21 21 23 21 20 20 18 17 13 13 11 9
14 14 15 14 15 17 17 17 17 16 17 17 18 20 23 19 18 19 18 20 20 19 19 20 21 21 19 20 20 20 21 19 20 18 20 22 19 15 14 14 11 10 11
13 15 15 14 14 14 15 14 15 14 14 15 15 15 17 17 18 18 17 15 14 16 16 15 17 16 18 17 21 18 17 17 17 23 17 23 19 16 16 12 14 13 12
13 14 16 15 14 15 15 14 15 15 15 15 15 15 15 15 15 16 16 15 13 13 16 12 15 12 13 14 14 17 17 17 14 14 15 19 20 17 16 13 12 13 10
13 14 15 16 17 17 17 18 17 17 17 17 17 16 15 14 14 14 15 14 13 13 13 12 14 10 14 14 13 13 14 16 16 11 11 17 13 13 13 14 11 9 10
13 14 15 16 16 17 17 18 19 20 19 18 17 18 18 18 18 14 12 14 15 13 10 15 13 10 10 16 13 10 15 16 14 12 10 15 12 12 9 11 10 7 7
12 14 16 16 17 17 18 20 19 20 20 19 18 18 17 19 20 21 19 13 11 12 14 13 11 8 12 11 7 11 16 14 12 9 10 11 10 12 10 10 9 10 5

GFSGL_925_spd_126.txt.gz
Wind_Speed
35 34 31 29 27 24 22 19 18 18 19 23 25 30 31 29 26 26 26 27 26 26 33 38 36 40 40 37 33 29 25 23 11 12 24 31 25 29 34 35 31 32 34
34 32 31 30 29 28 27 26 25 23 23 22 17 14 8 8 14 18 21 22 25 27 28 33 36 34 36 35 36 42 31 28 25 13 19 24 25 27 30 32 23 27 32
35 34 33 30 31 31 30 30 30 30 32 33 31 29 22 14 11 4 5 10 11 9 16 25 30 29 30 31 34 34 30 28 30 19 17 23 26 24 24 25 22 24 31
34 35 34 35 30 35 32 34 36 36 37 37 35 31 31 30 27 20 20 24 20 14 13 7 3 7 25 37 39 37 32 29 25 24 15 16 20 21 21 21 19 26 27
31 35 36 35 33 32 37 38 40 40 38 37 37 38 37 42 39 33 36 34 33 31 27 26 29 28 25 2 21 23 28 26 21 17 7 5 8 6 8 7 13 18 22
29 30 33 35 36 36 33 40 40 37 41 43 43 43 42 42 43 45 39 40 43 36 30 32 29 26 29 34 39 36 10 20 16 11 9 4 5 5 4 2 2 1 2
28 29 33 34 35 34 35 34 36 39 40 40 44 44 45 43 46 42 41 42 40 39 33 35 37 31 30 26 28 28 35 34 16 11 12 7 6 3 3 4 2 3 6
28 29 32 33 33 32 33 37 35 36 36 38 40 42 43 47 45 41 40 42 40 38 37 38 37 36 34 35 33 28 35 30 35 23 20 16 10 6 2 2 4 10 16
30 29 30 30 31 34 34 32 32 31 34 37 37 39 42 46 47 41 38 32 29 38 41 46 40 37 34 35 39 33 33 27 26 20 24 17 16 14 9 4 6 5 3
24 25 27 29 30 31 31 30 30 28 30 33 37 38 39 41 45 41 36 30 32 29 35 37 44 40 36 35 36 26 28 30 31 28 24 26 18 19 17 15 9 4 5
26 30 33 31 30 29 28 30 27 28 29 31 32 35 38 40 40 39 37 34 29 28 31 32 33 33 36 37 36 31 27 24 26 26 27 29 29 23 18 14 11 7 5
22 27 31 33 34 32 29 28 29 26 28 28 29 31 33 33 37 36 34 33 30 31 30 30 31 32 34 36 34 29 28 27 27 24 22 23 23 24 22 15 9 6 7
25 27 24 27 31 33 30 29 29 30 29 28 27 29 31 33 32 35 33 32 31 32 30 27 28 31 30 31 30 30 32 30 25 22 20 20 23 22 22 20 16 5 9
25 26 27 26 23 26 31 27 29 31 29 27 26 24 26 31 31 31 30 30 32 31 30 30 28 29 30 30 32 33 32 28 25 22 21 22 24 24 23 22 20 21 10
22 22 23 24 26 27 24 25 27 30 31 26 25 27 25 28 32 28 30 29 27 24 25 28 30 30 30 30 30 30 31 31 28 26 25 24 21 22 22 21 20 19 13
18 20 21 23 24 24 25 25 23 25 26 28 25 26 26 25 26 28 27 29 27 23 27 28 27 26 26 26 25 25 26 30 29 25 25 23 22 20 19 20 20 17 14
18 17 20 21 22 22 24 23 23 21 23 25 26 25 25 23 25 27 26 27 29 31 26 24 24 24 22 22 23 22 23 27 26 27 26 24 23 21 20 18 18 20 15
16 17 19 19 20 21 21 21 22 23 23 25 24 23 23 22 22 23 24 25 27 30 25 22 21 24 23 21 23 24 23 26 27 24 24 23 23 21 20 19 22 17 17
13 13 15 17 16 17 19 18 19 20 21 21 22 22 22 21 20 21 24 27 24 24 22 22 22 22 25 22 21 23 25 26 23 23 22 23 23 22 20 21 22 19 15
12 10 11 14 15 14 16 19 17 18 18 19 20 20 21 23 24 22 21 20 19 18 17 18 18 18 20 22 23 23 24 26 26 23 21 22 23 21 22 21 19 20 19
10 10 11 10 13 14 15 16 16 16 17 17 17 17 17 18 17 20 20 19 18 18 16 14 16 17 17 20 23 20 22 24 25 24 21 20 20 20 21 19 19 18 18
8 8 9 11 11 12 13 14 15 15 16 16 15 16 15 16 16 18 19 16 15 16 16 15 17 17 15 17 20 19 19 22 24 23 22 21 19 19 19 18 18 18 18
5 5 7 8 9 10 12 13 13 14 15 15 15 16 16 16 16 17 18 17 14 16 15 14 14 16 14 15 16 17 18 21 21 19 19 18 18 19 19 17 16 16 16
3 5 6 7 8 10 11 12 12 13 13 13 14 15 16 16 15 16 17 17 19 18 13 13 12 13 14 13 15 15 14 17 17 17 15 16 16 16 16 17 17 14 14
2 4 5 6 8 9 10 10 11 11 12 14 15 14 14 13 16 17 18 19 19 20 20 16 12 13 15 15 15 13 13 14 16 17 14 14 14 14 15 14 14 12 12
2 3 5 6 8 9 9 10 10 10 12 12 13 14 14 12 15 17 18 19 20 21 21 21 19 18 14 15 14 12 12 14 16 14 15 13 13 17 14 13 11 11 11

GFSGL_925_spd_129.txt.gz
Wind_Speed
31 32 32 32 29 26 25 24 23 21 21 19 20 21 6 10 16 19 20 20 21 21 22 25 29 32 35 31 26 28 27 27 11 19 21 23 28 30 36 38 40 37 38
30 31 31 33 28 28 28 29 28 27 27 28 28 27 22 14 8 6 12 16 17 16 21 27 31 30 31 31 26 28 27 19 17 11 22 25 25 33 33 32 35 36 37
31 30 32 34 29 31 31 32 33 31 33 34 34 35 35 30 24 16 9 4 5 5 4 6 7 16 21 21 26 25 27 29 29 24 27 25 27 31 28 29 28 29 30
29 30 32 34 33 30 34 35 32 35 35 36 38 37 38 38 33 29 23 23 23 24 23 21 15 10 1 11 10 26 34 29 27 30 30 23 20 24 25 20 17 26 27
27 29 31 31 31 34 32 34 37 39 39 39 43 46 44 40 45 36 30 30 30 31 31 28 28 29 17 10 6 7 13 23 29 26 24 19 17 14 20 18 19 20 21
28 30 31 33 33 33 36 35 38 40 43 48 48 47 48 45 48 42 37 36 36 36 33 33 30 26 27 32 21 19 15 14 5 10 15 13 5 3 11 14 13 8 4
27 30 32 32 33 34 32 36 39 40 41 43 45 43 46 46 43 41 39 40 43 42 40 36 34 34 23 24 28 31 35 34 28 21 24 21 15 14 9 1 5 5 3
27 28 31 32 32 34 36 36 36 36 39 39 40 42 42 46 41 37 39 40 41 42 45 41 39 39 33 28 28 34 33 36 36 29 27 25 17 14 10 3 8 3 2
28 27 27 27 29 34 34 34 33 34 36 37 38 40 41 43 44 39 33 34 35 39 40 41 44 38 35 35 32 31 30 33 29 30 32 25 24 21 15 13 18 7 3
28 27 26 26 28 30 32 30 30 30 32 32 36 37 38 39 42 41 38 32 34 32 33 38 39 37 36 35 35 30 28 30 29 32 33 31 28 26 24 26 16 10 7
25 28 30 29 29 28 29 31 30 30 31 32 32 34 36 39 38 38 36 35 29 28 31 33 34 31 36 35 35 34 28 25 27 26 26 25 27 28 26 21 15 17 15
18 21 26 29 29 31 32 32 33 28 28 28 29 30 32 33 35 34 34 32 27 28 28 27 28 29 29 34 35 30 29 29 28 26 25 25 25 27 27 22 16 12 13
20 22 19 22 27 28 29 28 27 26 26 24 25 26 29 31 32 32 30 30 30 30 26 23 25 29 30 36 36 36 38 33 28 26 24 22 23 23 24 25 23 12 11
20 21 21 20 19 18 28 27 26 26 23 24 22 23 24 28 30 32 30 29 30 29 29 31 30 32 35 35 36 37 37 35 27 24 22 23 24 24 27 27 23 26 13
19 19 19 20 21 22 25 23 27 27 25 22 27 22 22 25 28 27 29 30 25 24 27 30 31 29 29 30 29 30 31 33 31 29 29 27 26 24 25 25 23 21 14
15 17 19 20 20 21 21 20 20 21 22 22 22 23 23 22 23 24 25 27 27 23 32 29 28 25 25 25 26 25 27 29 30 27 27 26 25 23 22 23 24 20 16
18 16 17 17 17 16 17 18 21 20 19 19 21 21 21 21 22 23 22 23 26 31 28 25 24 25 23 24 26 26 28 31 26 26 26 26 26 23 21 20 22 23 19
16 14 14 15 15 15 15 16 17 18 19 20 20 19 19 19 19 20 21 27 27 28 23 24 25 25 23 22 26 27 30 31 30 27 25 26 26 23 20 20 20 21 21
11 12 12 10 11 13 13 14 15 16 17 17 17 18 19 17 18 19 21 23 22 22 22 22 22 22 23 25 23 24 26 28 29 28 26 26 26 25 22 21 22 24 22
9 7 9 10 10 11 12 13 14 14 15 16 18 20 19 16 19 21 19 17 18 18 18 18 18 18 19 21 24 24 26 29 30 29 26 25 24 23 22 22 23 23 22
7 7 8 8 10 11 12 14 14 14 15 15 16 16 15 17 19 21 23 19 16 17 17 18 17 17 17 18 19 21 21 24 27 25 25 24 23 23 22 22 22 22 22
5 5 6 8 8 10 11 11 12 12 13 14 13 14 15 16 17 18 19 20 20 20 18 16 16 17 17 17 18 20 21 22 24 24 24 24 23 23 22 22 23 23 22
2 3 4 6 7 8 9 10 10 10 10 11 13 14 15 14 16 17 18 19 20 21 21 20 15 14 15 16 17 17 17 19 19 21 22 21 22 22 22 23 24 23 21
1 2 3 5 6 7 8 9 9 8 10 11 12 13 14 12 16 17 18 19 20 20 20 19 19 19 17 15 14 16 16 16 17 19 20 19 20 20 22 21 21 20 20
1 2 3 5 5 7 7 7 6 7 9 10 12 13 13 12 14 15 16 18 19 20 21 21 21 21 20 20 16 16 15 14 15 18 18 19 17 18 20 17 17 18 18
1 1 3 4 5 6 6 6 7 8 10 11 13 14 14 13 13 14 17 19 21 22 23 23 23 23 21 20 20 16 14 13 14 17 18 16 14 17 18 17 17 16 17

GFSGL_925_spd_132.txt.gz
Wind_Speed
28 29 29 32 30 31 29 28 28 26 27 25 21 19 18 16 8 13 21 20 19 18 19 22 25 23 25 27 27 24 23 25 12 13 26 32 30 27 28 28 31 36 39
29 27 29 31 34 31 31 32 30 31 30 29 28 29 30 27 23 20 14 10 13 12 8 17 19 21 25 24 24 24 23 24 21 13 21 27 39 34 30 28 32 33 34
28 27 31 34 32 32 32 34 35 35 32 32 33 35 36 34 32 30 27 27 27 25 20 16 14 7 8 17 22 22 23 22 25 21 18 24 32 28 26 22 26 32 30
26 26 30 31 30 33 34 34 35 37 36 36 35 36 39 40 38 35 35 33 33 34 31 31 33 30 21 11 7 4 14 22 23 23 26 19 22 24 25 17 17 25 30
24 27 28 28 28 28 30 31 35 36 36 35 40 42 41 42 41 37 39 40 37 36 38 34 37 28 33 35 26 20 11 9 11 18 22 21 19 17 16 15 24 24 22
25 27 30 31 32 32 31 31 31 33 35 38 40 42 43 43 42 41 41 42 41 40 38 37 38 38 31 33 33 39 36 22 8 5 6 6 4 6 5 6 7 10 5
22 27 31 31 33 33 30 30 32 34 34 38 39 41 42 42 38 39 41 44 42 43 43 38 39 42 38 34 35 37 41 40 34 23 17 12 8 14 12 10 4 1 8
21 25 30 30 31 32 33 32 31 31 34 36 38 39 41 46 42 37 36 38 41 45 42 43 40 42 40 37 34 37 37 37 37 33 28 25 24 16 8 6 8 2 8
23 26 25 27 28 31 32 30 30 32 33 33 35 38 40 44 43 39 34 36 35 38 38 42 42 41 38 36 38 32 32 35 31 27 28 29 33 31 26 15 16 11 4
25 27 27 26 29 30 30 29 28 29 30 31 35 38 39 42 43 42 39 34 34 32 32 35 37 38 36 34 35 30 29 29 32 33 34 36 37 37 35 29 26 15 8
25 28 29 29 29 30 30 30 28 26 31 31 31 34 38 39 39 40 39 37 29 27 30 32 35 33 35 35 35 34 28 28 30 23 24 31 37 37 36 31 26 27 18
20 25 26 29 30 31 33 32 32 30 27 29 29 31 34 36 36 34 34 33 30 32 29 29 30 30 31 36 37 33 33 35 33 28 28 30 29 30 31 28 20 20 18
18 19 18 21 28 29 32 31 26 28 26 24 28 28 29 31 33 34 31 30 30 31 26 24 27 31 32 37 33 33 39 37 31 29 26 26 27 25 25 29 27 14 16
18 19 18 22 21 24 29 30 28 24 24 25 24 26 26 29 32 32 34 34 33 32 33 34 31 33 37 36 39 40 37 34 29 25 24 26 27 29 26 27 22 26 18
17 18 19 20 19 20 24 25 27 26 26 26 27 26 25 26 28 27 29 31 29 28 31 34 35 32 32 33 33 35 37 35 33 29 28 27 28 27 26 27 26 23 17
14 16 16 17 19 20 21 21 20 19 20 21 21 22 22 22 22 24 25 26 27 24 33 32 29 28 27 26 27 27 31 33 31 27 28 27 28 24 23 23 24 23 20
15 15 15 14 15 15 16 17 19 18 16 15 17 18 18 18 19 21 22 23 23 31 31 30 29 29 24 26 28 30 29 34 32 31 28 27 25 23 22 22 22 21 21
15 14 14 14 13 11 13 13 13 14 15 16 16 15 15 16 16 17 18 22 26 27 25 24 23 24 23 24 26 27 30 33 33 31 31 30 30 23 21 20 20 21 21
12 11 9 9 9 10 10 10 11 12 13 15 15 15 14 13 16 18 14 17 18 19 19 19 19 19 20 20 22 23 25 29 30 30 30 29 29 27 24 21 20 21 20
9 8 8 8 8 8 9 9 10 11 12 14 16 16 15 16 19 21 21 20 19 19 18 16 15 16 16 17 19 21 23 26 27 28 28 28 28 26 25 22 22 21 19
8 7 6 6 7 7 8 9 10 11 12 12 14 14 16 17 18 19 20 21 21 21 21 21 18 14 15 15 16 18 20 21 23 24 25 26 25 26 24 23 21 20 19
6 6 5 5 5 6 7 8 9 10 11 12 13 14 15 16 17 18 19 20 20 20 19 19 19 18 18 17 15 16 17 18 20 22 24 25 25 25 25 26 26 25 21
5 5 4 4 4 5 6 7 7 8 9 10 12 14 15 14 15 17 18 19 19 20 20 20 20 20 20 19 18 16 15 16 16 19 22 24 25 24 24 27 25 23 22
4 4 3 3 3 4 5 5 5 6 8 10 11 12 13 14 15 16 17 19 20 21 20 21 21 22 22 22 19 19 16 14 14 16 19 22 22 20 22 26 24 23 23
4 3 2 2 3 4 3 3 4 6 8 10 12 14 15 14 15 15 17 19 21 22 24 24 24 24 24 23 20 19 20 15 10 14 18 21 20 19 21 23 23 23 21
3 2 1 2 2 2 3 4 5 7 9 12 14 14 14 14 14 16 19 22 25 27 27 27 26 24 23 22 19 20 20 14 8 11 15 18 18 18 20 21 21 23 22